{"data":{"norad_id":66261,"epoch":"2026-09-20T20:54:43.262784Z","epoch_age_seconds":64525,"freshness":"FRESH","line1":"1 66261U 25245AD  26263.87133406  .00013727  00000+0  45312-3 0  9997","line2":"2 66261  53.1591  95.5912 0001047 104.1426 255.9692 15.31711585 51166","mean_motion":15.31711585,"eccentricity":0.0001047,"inclination_deg":53.1591,"raan_deg":95.5912,"arg_perigee_deg":104.1426,"mean_anomaly_deg":255.9692,"bstar":0.00045312,"rev_number":5116,"period_min":94.012476898515,"perigee_km":469.98838735546,"apogee_km":471.42253496683,"semimajor_km":6848.8424611611,"source":"CELESTRAK","updated_at":"2026-09-21T09:00:35.851783Z"}}